Location: Eltham (historical)
(37.6695°N, 89.3348°W)
Time: 16:51:38
(UTC+00:00)

Daily predictions for brighter satellites

Satellite Brightness Start Highest point End
(mag) Time Altitude Azimuth Time Altitude Azimuth Time Altitude Azimuth
Cosmos 1484 Rocket 4.3 12:01:22 10° NNW 12:03:50 16° WNW 12:06:16 10° WSW
SJ-7 4.4 12:05:30 10° N 12:09:27 56° WNW 12:13:20 10° SSW
Cosmos 2279 Rocket 4.0 12:03:59 10° S 12:10:10 83° W 12:16:25 10° N
Okean 3 4.4 12:06:37 10° N 12:10:41 50° E 12:14:46 10° SSE
SL-24 R/B 4.2 12:09:33 10° S 12:14:20 75° WSW 12:18:38 10° NNW
Cosmos 1634 Rocket 4.3 12:08:54 10° SSW 12:14:49 45° WNW 12:20:44 10° N
FALCON 9 DEB 4.2 12:17:14 10° NNW 12:19:10 22° NE 12:21:06 10° E
Cosmos 1655 Rocket 4.3 12:14:42 10° N 12:20:56 73° E 12:27:07 10° SSE
Meteor 1-18 Rocket 4.3 12:16:29 10° NNW 12:21:54 56° W 12:27:19 10° S
PSLV R/B 3.3 12:20:00 11° WNW 12:22:05 34° N 12:24:23 10° ENE
FALCON 9 DEB 4.0 12:23:16 10° NNW 12:25:20 25° NE 12:27:23 10° E
Cosmos 371 Rocket 3.8 12:20:48 10° S 12:25:35 67° ESE 12:30:25 10° NNE
Cosmos 1331 Rocket 4.3 22:58:06 10° NNW 23:03:21 77° WSW 23:08:37 10° S
Cosmos 2360 Rocket 4.0 22:59:34 10° WSW 23:04:22 28° WNW 23:09:13 10° N
Meteor 1-10 Rocket 4.2 22:58:56 10° S 23:04:25 66° E 23:09:56 10° NNE
SL-8 R/B 3.7 23:01:22 10° NW 23:06:11 65° NNE 23:10:58 10° ESE
Cosmos 2279 Rocket 4.0 23:01:29 10° N 23:07:45 74° E 23:14:00 10° SSE
COSMO-SKYMED 1 4.0 23:06:06 10° NE 23:09:13 19° E 23:12:20 10° SE
SL-16 R/B 3.9 23:09:58 10° SE 23:12:37 13° E 23:15:15 10° ENE
CENTAUR R/B 3.5 23:05:50 10° NW 23:14:06 78° WSW 23:22:50 10° SSE
YAOGAN 1 4.4 23:13:24 10° E 23:14:43 11° ENE 23:16:03 10° NE
Atlas Centaur 2 3.9 23:07:57 10° WSW 23:15:05 48° S 23:23:07 10° ESE
Cosmos 2333 Rocket 2.7 23:10:05 10° SSW 23:15:45 66° WNW 23:21:31 10° NNE
Nadezhda 4 Rocket 4.1 23:17:26 10° S 23:23:36 58° E 23:29:47 10° NNE
Meteor 1-11 Rocket 4.0 23:18:09 10° N 23:24:00 54° ENE 23:29:47 10° SSE
Cosmos 2237 Rocket 2.4 23:19:12 10° S 23:24:42 53° ESE 23:30:13 10° NNE
Meteor 1-27 Rocket 3.8 23:19:27 10° S 23:25:01 60° E 23:30:44 10° NNE
BREEZE-M DEB (TANK) 3.7 23:21:26 10° NW 23:25:36 21° N 23:27:29 13° NE
Cosmos 1536 3.5 23:26:19 10° NNE 23:29:56 31° ENE 23:33:31 10° SE
Cosmos 1500 3.3 23:26:17 10° N 23:29:58 51° E 23:33:36 10° SSE
FALCON 9 DEB 4.3 23:27:05 10° SSW 23:30:09 29° SE 23:32:21 16° ENE
COBE Rocket 3.8 23:25:47 10° N 23:30:27 87° WNW 23:35:09 10° SSW
Okean 1-7 4.4 23:27:30 10° SE 23:30:35 19° E 23:33:00 13° NE
Cosmos 1340 4.5 23:27:27 10° NNW 23:30:56 35° W 23:34:24 10° SSW
CZ-4 R/B 2.6 23:29:20 10° ESE 23:32:12 20° ENE 23:35:02 10° NNE
H-2A R/B 2.6 23:29:13 10° SSE 23:32:55 87° E 23:36:38 10° N
Cosmos 1733 Rocket 3.0 23:28:58 10° N 23:33:21 71° E 23:37:43 10° SSE
SMAP 3.2 23:33:04 10° S 23:37:42 78° WSW 23:42:23 10° NNW
NOAA 12 4.1 23:32:31 10° SSE 23:37:44 62° ENE 23:42:58 10° N
YAOGAN 6 3.4 23:35:06 10° SE 23:38:05 27° ENE 23:41:07 10° NNE
Lacrosse 5 rocket 2.4 23:36:33 10° WSW 23:40:41 41° NW 23:44:24 11° NNE
Feng Yun 1-1 Rocket 4.4 23:35:57 10° S 23:41:21 76° WSW 23:46:45 10° NNW
Cosmos 2219 Rocket 3.4 23:36:25 10° SW 23:41:40 40° WNW 23:46:57 10° N
CORIOLIS 4.2 23:37:16 10° SSE 23:42:43 88° WSW 23:48:12 10° NNW
USA 267 3.4 23:39:12 10° SE 23:45:43 77° SW 23:52:17 10° NW
Cosmos 2026 Rocket 4.4 23:40:55 10° SSE 23:46:24 37° E 23:51:52 10° NNE
STARLINK-52 4.0 23:45:13 10° SSW 23:48:25 34° SE 23:49:46 25° E
SL-4 R/B 4.0 23:48:32 10° WNW 23:51:09 17° NNW 23:53:28 12° NNE
ERBS 2.9 23:49:46 10° NW 23:53:03 56° SW 23:56:21 10° SSE
